| time (UTC) | temp F | wind direction | speed MPH | gust MPH | rain 1hr in | rain 24hr in | rain mn in | humidity % | barometer mb |
| 20260509182333 | 111 | 18 | 1.0 | 8.0 | 0.00 | 0.00 | 0.00 | 100 | 1009.7 |
| 20260509181829 | 111 | 22 | 6.0 | 9.0 | 0.00 | 0.00 | 0.00 | 100 | 1009.9 |
| 20260509181823 | 110 | 288 | 1.0 | 9.0 | 0.00 | 0.00 | 0.00 | 100 | 1010.2 |
| 20260509181051 | 110 | 168 | 0.0 | 8.0 | 0.00 | 0.00 | 0.00 | 100 | 1010.2 |
| 20260509180320 | 110 | 203 | 4.0 | 6.0 | 0.00 | 0.00 | 0.00 | 100 | 1010.2 |
| 20260509175817 | 109 | 330 | 0.0 | 6.0 | 0.00 | 0.00 | 0.00 | 100 | 1010.2 |
| 20260509175308 | 109 | 243 | 1.0 | 6.0 | 0.00 | 0.00 | 0.00 | 100 | 1010.3 |
| 20260509174807 | 108 | 181 | 2.0 | 7.0 | 0.00 | 0.00 | 0.00 | 100 | 1010.3 |
| 20260509174307 | 109 | 177 | 0.0 | 9.0 | 0.00 | 0.00 | 0.00 | 100 | 1010.3 |
| 20260509173756 | 109 | 230 | 0.0 | 9.0 | 0.00 | 0.00 | 0.00 | 100 | 1010.4 |
| 20260509173256 | 109 | 180 | 4.0 | 7.0 | 0.00 | 0.00 | 0.00 | 100 | 1010.7 |
| 20260509173028 | 109 | 343 | 0.0 | 6.0 | 0.00 | 0.00 | 0.00 | 100 | 1010.9 |
| 20260509172253 | 108 | 1 | 1.0 | 6.0 | 0.00 | 0.00 | 0.00 | 100 | 1010.9 |
| 20260509171752 | 108 | 322 | 1.0 | 6.0 | 0.00 | 0.00 | 0.00 | 100 | 1010.9 |
| 20260509171248 | 108 | 355 | 0.0 | 6.0 | 0.00 | 0.00 | 0.00 | 100 | 1011.0 |
| 20260509170747 | 108 | 358 | 0.0 | 6.0 | 0.00 | 0.00 | 0.00 | 100 | 1010.9 |
| 20260509170244 | 107 | 358 | 3.0 | 7.0 | 0.00 | 0.00 | 0.00 | 100 | 1010.8 |
| 20260509165745 | 107 | 194 | 1.0 | 9.0 | 0.00 | 0.00 | 0.00 | 100 | 1010.7 |
| 20260509165244 | 107 | 215 | 4.0 | 9.0 | 0.00 | 0.00 | 0.00 | 100 | 1010.8 |
| 20260509165017 | 107 | 175 | 3.0 | 8.0 | 0.00 | 0.00 | 0.00 | 100 | 1010.8 |
| 20260509164346 | 107 | 164 | 2.0 | 6.0 | 0.00 | 0.00 | 0.00 | 100 | 1010.8 |
| 20260509163237 | 107 | 192 | 3.0 | 8.0 | 0.00 | 0.00 | 0.00 | 100 | 1010.8 |
| 20260509162723 | 107 | 32 | 0.0 | 7.0 | 0.00 | 0.00 | 0.00 | 100 | 1010.8 |
| 20260509162219 | 106 | 240 | 3.0 | 7.0 | 0.00 | 0.00 | 0.00 | 100 | 1010.8 |
| 20260509161708 | 106 | 9 | 4.0 | 7.0 | 0.00 | 0.00 | 0.00 | 100 | 1010.9 |
| 20260509161209 | 104 | 220 | 0.0 | 5.0 | 0.00 | 0.00 | 0.00 | 100 | 1010.9 |
| 20260509160709 | 105 | 191 | 0.0 | 5.0 | 0.00 | 0.00 | 0.00 | 100 | 1010.8 |
| 20260509160202 | 104 | 108 | 0.0 | 6.0 | 0.00 | 0.00 | 0.00 | 100 | 1010.8 |
| 20260509155935 | 103 | 143 | 0.0 | 7.0 | 0.00 | 0.00 | 0.00 | 100 | 1010.9 |
| 20260509155201 | 103 | 144 | 4.0 | 9.0 | 0.00 | 0.00 | 0.00 | 100 | 1011.0 |
| 20260509154702 | 104 | 168 | 5.0 | 10.0 | 0.00 | 0.00 | 0.00 | 100 | 1011.0 |
| 20260509154202 | 103 | 158 | 0.0 | 13.0 | 0.00 | 0.00 | 0.00 | 100 | 1011.0 |
| 20260509153702 | 103 | 191 | 4.0 | 13.0 | 0.00 | 0.00 | 0.00 | 100 | 1011.0 |
| 20260509153202 | 103 | 170 | 3.0 | 10.0 | 0.00 | 0.00 | 0.00 | 100 | 1010.8 |
| 20260509152932 | 102 | 144 | 4.0 | 8.0 | 0.00 | 0.00 | 0.00 | 100 | 1010.7 |
| 20260509152201 | 103 | 146 | 2.0 | 11.0 | 0.00 | 0.00 | 0.00 | 100 | 1010.6 |
| 20260509151659 | 102 | 178 | 5.0 | 11.0 | 0.00 | 0.00 | 0.00 | 100 | 1010.5 |
| 20260509151429 | 102 | 232 | 6.0 | 10.0 | 0.00 | 0.00 | 0.00 | 100 | 1010.5 |
| 20260509150658 | 102 | 142 | 5.0 | 8.0 | 0.00 | 0.00 | 0.00 | 100 | 1010.5 |
| 20260509150153 | 102 | 135 | 3.0 | 8.0 | 0.00 | 0.00 | 0.00 | 100 | 1010.4 |
| 20260509145653 | 102 | 112 | 3.0 | 8.0 | 0.00 | 0.00 | 0.00 | 100 | 1010.5 |
| 20260509145424 | 101 | 180 | 4.0 | 10.0 | 0.00 | 0.00 | 0.00 | 100 | 1010.4 |
| 20260509144652 | 101 | 147 | 6.0 | 10.0 | 0.00 | 0.00 | 0.00 | 100 | 1010.4 |
| 20260509144425 | 101 | 140 | 4.0 | 8.0 | 0.00 | 0.00 | 0.00 | 1 | 1010.4 |
| 20260509143651 | 101 | 217 | 4.0 | 7.0 | 0.00 | 0.00 | 0.00 | 100 | 1010.4 |
| 20260509143155 | 101 | 140 | 2.0 | 9.0 | 0.00 | 0.00 | 0.00 | 100 | 1010.2 |
| 20260509143150 | 102 | 205 | 3.0 | 6.0 | 0.00 | 0.00 | 0.00 | 100 | 1010.4 |
| 20260509142146 | 101 | 184 | 5.0 | 9.0 | 0.00 | 0.00 | 0.00 | 100 | 1010.0 |
| 20260509141646 | 101 | 125 | 3.0 | 7.0 | 0.00 | 0.00 | 0.00 | 100 | 1009.9 |
| 20260509141143 | 101 | 165 | 4.0 | 7.0 | 0.00 | 0.00 | 0.00 | 100 | 1009.7 |
| 20260509140644 | 101 | 142 | 1.0 | 6.0 | 0.00 | 0.00 | 0.00 | 100 | 1009.5 |
| 20260509140143 | 102 | 135 | 0.0 | 6.0 | 0.00 | 0.00 | 0.00 | 3 | 1009.5 |
| 20260509135640 | 102 | 140 | 0.0 | 6.0 | 0.00 | 0.00 | 0.00 | 7 | 1009.4 |
| 20260509135408 | 101 | 143 | 2.0 | 6.0 | 0.00 | 0.00 | 0.00 | 26 | 1009.4 |
| 20260509134637 | 101 | 126 | 0.0 | 5.0 | 0.00 | 0.00 | 0.00 | 100 | 1009.5 |
| 20260509134132 | 101 | 153 | 0.0 | 5.0 | 0.00 | 0.00 | 0.00 | 100 | 1009.6 |
| 20260509133848 | 101 | 153 | 0.0 | 5.0 | 0.00 | 0.00 | 0.00 | 100 | 1009.7 |
| 20260509133600 | 101 | 167 | 0.0 | 2.0 | 0.00 | 0.00 | 0.00 | 100 | 1009.6 |
| 20260509132831 | 101 | 167 | 0.0 | 5.0 | 0.00 | 0.00 | 0.00 | 100 | 1009.7 |
| 20260509132058 | 100 | 167 | 2.0 | 5.0 | 0.00 | 0.00 | 0.00 | 100 | 1010.2 |
| 20260509131545 | 100 | 151 | 0.0 | 0.0 | 0.00 | 0.00 | 0.00 | 100 | 1010.0 |
| 20260509131041 | 100 | 151 | 0.0 | 0.0 | 0.00 | 0.00 | 0.00 | 100 | 1010.4 |
| 20260509130537 | 100 | 151 | 0.0 | 0.0 | 0.00 | 0.00 | 0.00 | 100 | 1010.7 |
| 20260509130031 | 100 | 151 | 0.0 | 0.0 | 0.00 | 0.00 | 0.00 | 100 | 1010.7 |
| 20260509125754 | 100 | 151 | 0.0 | 0.0 | 0.00 | 0.00 | 0.00 | 100 | 1010.7 |
| 20260509125017 | 100 | 151 | 0.0 | 0.0 | 0.00 | 0.00 | 0.00 | 100 | 1010.5 |
| 20260509124512 | 101 | 151 | 0.0 | 0.0 | 0.00 | 0.00 | 0.00 | 100 | 1010.4 |
| 20260509124000 | 100 | 151 | 0.0 | 0.0 | 0.00 | 0.00 | 0.00 | 100 | 1010.4 |
| 20260509123452 | 101 | 151 | 0.0 | 0.0 | 0.00 | 0.00 | 0.00 | 100 | 1010.3 |
| 20260509122945 | 101 | 151 | 0.0 | 0.0 | 0.00 | 0.00 | 0.00 | 100 | 1010.3 |
| 20260509122445 | 101 | 151 | 0.0 | 0.0 | 0.00 | 0.00 | 0.00 | 100 | 1009.9 |
| 20260509121930 | 101 | 151 | 0.0 | 0.0 | 0.00 | 0.00 | 0.00 | 100 | 1009.9 |
| 20260509121415 | 101 | 151 | 0.0 | 0.0 | 0.00 | 0.00 | 0.00 | 100 | 1010.0 |
| 20260509120907 | 100 | 151 | 0.0 | 0.0 | 0.00 | 0.00 | 0.00 | 100 | 1010.0 |
| 20260509120402 | 101 | 151 | 0.0 | 0.0 | 0.00 | 0.00 | 0.00 | 100 | 1010.0 |
| 20260509115859 | 100 | 151 | 0.0 | 0.0 | 0.00 | 0.00 | 0.00 | 100 | 1009.9 |
| 20260509115357 | 101 | 151 | 0.0 | 0.0 | 0.00 | 0.00 | 0.00 | 100 | 1010.2 |
| 20260509114849 | 100 | 151 | 0.0 | 0.0 | 0.00 | 0.00 | 0.00 | 100 | 1010.4 |
| 20260509114345 | 101 | 151 | 0.0 | 0.0 | 0.00 | 0.00 | 0.00 | 100 | 1010.5 |
| 20260509113839 | 101 | 151 | 0.0 | 0.0 | 0.00 | 0.00 | 0.00 | 100 | 1010.6 |
| 20260509113338 | 101 | 151 | 0.0 | 0.0 | 0.00 | 0.00 | 0.00 | 100 | 1010.8 |
| 20260509112839 | 101 | 151 | 0.0 | 0.0 | 0.00 | 0.00 | 0.00 | 100 | 1010.9 |
| 20260509112559 | 101 | 151 | 0.0 | 0.0 | 0.00 | 0.00 | 0.00 | 100 | 1011.1 |
| 20260509111828 | 101 | 151 | 0.0 | 0.0 | 0.00 | 0.00 | 0.00 | 100 | 1011.2 |
| 20260509111322 | 101 | 151 | 0.0 | 0.0 | 0.00 | 0.00 | 0.00 | 100 | 1011.2 |
| 20260509111036 | 101 | 151 | 0.0 | 0.0 | 0.00 | 0.00 | 0.00 | 100 | 1011.2 |
| 20260509110238 | 101 | 151 | 0.0 | 0.0 | 0.00 | 0.00 | 0.00 | 100 | 1011.3 |
| 20260509105736 | 101 | 151 | 0.0 | 0.0 | 0.00 | 0.00 | 0.00 | 100 | 1011.3 |
| 20260509105233 | 101 | 151 | 0.0 | 0.0 | 0.00 | 0.00 | 0.00 | 100 | 1011.3 |
| 20260509104728 | 101 | 151 | 0.0 | 0.0 | 0.00 | 0.00 | 0.00 | 100 | 1011.4 |
| 20260509104216 | 101 | 151 | 0.0 | 0.0 | 0.00 | 0.00 | 0.00 | 100 | 1011.4 |
| 20260509103652 | 100 | 151 | 0.0 | 0.0 | 0.00 | 0.00 | 0.00 | 100 | 1011.2 |
| 20260509103152 | 100 | 151 | 0.0 | 0.0 | 0.00 | 0.00 | 0.00 | 100 | 1011.4 |
| 20260509102648 | 100 | 151 | 0.0 | 0.0 | 0.00 | 0.00 | 0.00 | 100 | 1011.4 |
| 20260509102145 | 101 | 151 | 0.0 | 0.0 | 0.00 | 0.00 | 0.00 | 100 | 1011.3 |
| 20260509101908 | 100 | 151 | 0.0 | 0.0 | 0.00 | 0.00 | 0.00 | 100 | 1011.3 |
| 20260509101131 | 101 | 151 | 0.0 | 0.0 | 0.00 | 0.00 | 0.00 | 100 | 1011.1 |
| 20260509100626 | 100 | 151 | 0.0 | 0.0 | 0.00 | 0.00 | 0.00 | 100 | 1010.9 |
| 20260509100122 | 100 | 151 | 0.0 | 0.0 | 0.00 | 0.00 | 0.00 | 100 | 1010.7 |
| 20260509095614 | 101 | 151 | 0.0 | 0.0 | 0.00 | 0.00 | 0.00 | 100 | 1010.5 |
| 20260509095106 | 100 | 151 | 0.0 | 0.0 | 0.00 | 0.00 | 0.00 | 100 | 1010.2 |
| 20260509094603 | 100 | 151 | 0.0 | 0.0 | 0.00 | 0.00 | 0.00 | 100 | 1009.9 |
| 20260509094055 | 100 | 151 | 0.0 | 0.0 | 0.00 | 0.00 | 0.00 | 100 | 1009.7 |
| 20260509093558 | 100 | 151 | 0.0 | 0.0 | 0.00 | 0.00 | 0.00 | 100 | 1009.7 |
| 20260509093050 | 100 | 151 | 0.0 | 0.0 | 0.00 | 0.00 | 0.00 | 100 | 1009.7 |
| 20260509092537 | 100 | 151 | 0.0 | 0.0 | 0.00 | 0.00 | 0.00 | 100 | 1009.6 |
| 20260509092014 | 100 | 151 | 0.0 | 0.0 | 0.00 | 0.00 | 0.00 | 100 | 1009.6 |
| 20260509091507 | 100 | 151 | 0.0 | 0.0 | 0.00 | 0.00 | 0.00 | 100 | 1009.6 |
| 20260509091000 | 100 | 151 | 0.0 | 0.0 | 0.00 | 0.00 | 0.00 | 100 | 1009.6 |
| 20260509090500 | 100 | 151 | 0.0 | 0.0 | 0.00 | 0.00 | 0.00 | 100 | 1009.7 |
| 20260509085957 | 100 | 151 | 0.0 | 0.0 | 0.00 | 0.00 | 0.00 | 100 | 1009.7 |
| 20260509085443 | 100 | 151 | 0.0 | 0.0 | 0.00 | 0.00 | 0.00 | 100 | 1009.7 |
| 20260509084939 | 100 | 151 | 0.0 | 0.0 | 0.00 | 0.00 | 0.00 | 100 | 1009.7 |
| 20260509084434 | 100 | 151 | 0.0 | 0.0 | 0.00 | 0.00 | 0.00 | 100 | 1009.7 |
| 20260509083929 | 100 | 151 | 0.0 | 0.0 | 0.00 | 0.00 | 0.00 | 100 | 1009.7 |
| 20260509083411 | 100 | 151 | 0.0 | 0.0 | 0.00 | 0.00 | 0.00 | 100 | 1010.0 |
| 20260509082859 | 100 | 151 | 0.0 | 0.0 | 0.00 | 0.00 | 0.00 | 100 | 1010.2 |
| 20260509082353 | 100 | 151 | 0.0 | 0.0 | 0.00 | 0.00 | 0.00 | 100 | 1010.2 |
| 20260509081853 | 100 | 151 | 0.0 | 0.0 | 0.00 | 0.00 | 0.00 | 100 | 1010.4 |
| 20260509081622 | 100 | 151 | 0.0 | 0.0 | 0.00 | 0.00 | 0.00 | 100 | 1010.3 |
| 20260509080838 | 100 | 151 | 0.0 | 0.0 | 0.00 | 0.00 | 0.00 | 100 | 1010.3 |
| 20260509080604 | 100 | 151 | 0.0 | 0.0 | 0.00 | 0.00 | 0.00 | 100 | 1010.0 |
| 20260509075829 | 100 | 151 | 0.0 | 0.0 | 0.00 | 0.00 | 0.00 | 100 | 1010.2 |
| 20260509075314 | 100 | 151 | 0.0 | 0.0 | 0.00 | 0.00 | 0.00 | 100 | 1010.2 |
| 20260509074814 | 100 | 151 | 0.0 | 0.0 | 0.00 | 0.00 | 0.00 | 100 | 1010.2 |
| 20260509074303 | 100 | 151 | 0.0 | 0.0 | 0.00 | 0.00 | 0.00 | 82 | 1010.2 |
| 20260509073758 | 100 | 151 | 0.0 | 0.0 | 0.00 | 0.00 | 0.00 | 69 | 1010.2 |
| 20260509073254 | 100 | 151 | 0.0 | 0.0 | 0.00 | 0.00 | 0.00 | 58 | 1010.2 |
| 20260509072753 | 100 | 151 | 0.0 | 0.0 | 0.00 | 0.00 | 0.00 | 45 | 1010.4 |
| 20260509072250 | 100 | 151 | 0.0 | 0.0 | 0.00 | 0.00 | 0.00 | 34 | 1010.4 |
| 20260509072018 | 100 | 151 | 0.0 | 0.0 | 0.00 | 0.00 | 0.00 | 31 | 1010.5 |
| 20260509071240 | 100 | 151 | 0.0 | 0.0 | 0.00 | 0.00 | 0.00 | 29 | 1010.6 |
| 20260509070723 | 100 | 151 | 0.0 | 0.0 | 0.00 | 0.00 | 0.00 | 24 | 1010.6 |
| 20260509070214 | 101 | 151 | 0.0 | 0.0 | 0.00 | 0.00 | 0.00 | 21 | 1010.7 |
| 20260509065713 | 100 | 151 | 0.0 | 0.0 | 0.00 | 0.00 | 0.00 | 20 | 1010.5 |
| 20260509065213 | 100 | 151 | 0.0 | 0.0 | 0.00 | 0.00 | 0.00 | 16 | 1010.6 |
| 20260509064652 | 101 | 151 | 0.0 | 0.0 | 0.00 | 0.00 | 0.00 | 15 | 1010.3 |
| 20260509064141 | 100 | 151 | 0.0 | 0.0 | 0.00 | 0.00 | 0.00 | 14 | 1010.2 |
| 20260509063637 | 100 | 151 | 0.0 | 0.0 | 0.00 | 0.00 | 0.00 | 12 | 1010.2 |
| 20260509063129 | 101 | 151 | 0.0 | 0.0 | 0.00 | 0.00 | 0.00 | 10 | 1010.2 |
| 20260509062626 | 100 | 151 | 0.0 | 0.0 | 0.00 | 0.00 | 0.00 | 8 | 1010.3 |
| 20260509062121 | 101 | 151 | 0.0 | 7.0 | 0.00 | 0.00 | 0.00 | 7 | 1010.4 |
| 20260509061848 | 100 | 151 | 0.0 | 7.0 | 0.00 | 0.00 | 0.00 | 7 | 1010.3 |
| 20260509061612 | 100 | 149 | 0.0 | 6.0 | 0.00 | 0.00 | 0.00 | 6 | 1010.0 |
| 20260509060555 | 100 | 149 | 0.0 | 7.0 | 0.00 | 0.00 | 0.00 | 5 | 1009.7 |
| 20260509060056 | 100 | 153 | 4.0 | 7.0 | 0.00 | 0.00 | 0.00 | 5 | 1009.6 |
| 20260509055827 | 100 | 125 | 0.0 | 2.0 | 0.00 | 0.00 | 0.00 | 4 | 1009.5 |
| 20260509055051 | 100 | 125 | 0.0 | 8.0 | 0.00 | 0.00 | 0.00 | 4 | 1009.7 |
| 20260509054545 | 101 | 125 | 2.0 | 9.0 | 0.00 | 0.00 | 0.00 | 3 | 1009.9 |
| 20260509054045 | 101 | 144 | 0.0 | 9.0 | 0.00 | 0.00 | 0.00 | 3 | 1009.9 |
| 20260509053533 | 101 | 161 | 0.0 | 5.0 | 0.00 | 0.00 | 0.00 | 3 | 1009.7 |
| 20260509053300 | 101 | 160 | 2.0 | 6.0 | 0.00 | 0.00 | 0.00 | 3 | 1009.5 |
| 20260509052525 | 101 | 140 | 2.0 | 6.0 | 0.00 | 0.00 | 0.00 | 4 | 1009.2 |
| 20260509052016 | 101 | 109 | 0.0 | 4.0 | 0.00 | 0.00 | 0.00 | 4 | 1009.1 |
| 20260509051506 | 101 | 146 | 0.0 | 6.0 | 0.00 | 0.00 | 0.00 | 4 | 1008.9 |
| 20260509050957 | 101 | 123 | 4.0 | 6.0 | 0.00 | 0.00 | 0.00 | 3 | 1008.9 |
| 20260509050456 | 101 | 116 | 0.0 | 6.0 | 0.00 | 0.00 | 0.00 | 2 | 1009.0 |
| 20260509045949 | 101 | 137 | 0.0 | 6.0 | 0.00 | 0.00 | 0.00 | 1 | 1009.1 |
| 20260509045715 | 101 | 143 | 0.0 | 0.0 | 0.00 | 0.00 | 0.00 | 1 | 1009.0 |
| 20260509045214 | 100 | 143 | 0.0 | 0.0 | 0.00 | 0.00 | 0.00 | 100 | 1009.0 |
| 20260509044443 | 101 | 143 | 0.0 | 0.0 | 0.00 | 0.00 | 0.00 | 100 | 1009.1 |
| 20260509043938 | 101 | 143 | 0.0 | 5.0 | 0.00 | 0.00 | 0.00 | 100 | 1009.2 |
| 20260509043420 | 101 | 143 | 0.0 | 5.0 | 0.00 | 0.00 | 0.00 | 100 | 1009.2 |
| 20260509042917 | 101 | 133 | 1.0 | 5.0 | 0.00 | 0.00 | 0.00 | 100 | 1009.2 |
| 20260509042418 | 101 | 109 | 0.0 | 0.0 | 0.00 | 0.00 | 0.00 | 100 | 1009.3 |
| 20260509041918 | 101 | 109 | 0.0 | 0.0 | 0.00 | 0.00 | 0.00 | 100 | 1009.5 |
| 20260509041412 | 101 | 109 | 0.0 | 0.0 | 0.00 | 0.00 | 0.00 | 100 | 1009.5 |
| 20260509040913 | 101 | 109 | 0.0 | 0.0 | 0.00 | 0.00 | 0.00 | 100 | 1009.4 |
| 20260509040359 | 101 | 109 | 0.0 | 0.0 | 0.00 | 0.00 | 0.00 | 100 | 1009.6 |
| 20260509035902 | 101 | 109 | 0.0 | 0.0 | 0.00 | 0.00 | 0.00 | 100 | 1009.5 |
| 20260509035351 | 100 | 109 | 0.0 | 0.0 | 0.00 | 0.00 | 0.00 | 100 | 1009.4 |
| 20260509034848 | 101 | 109 | 0.0 | 0.0 | 0.00 | 0.00 | 0.00 | 100 | 1009.3 |
| 20260509034843 | 101 | 109 | 0.0 | 0.0 | 0.00 | 0.00 | 0.00 | 100 | 1009.3 |
| 20260509033837 | 100 | 109 | 0.0 | 0.0 | 0.00 | 0.00 | 0.00 | 100 | 1009.2 |
| 20260509033334 | 101 | 109 | 0.0 | 0.0 | 0.00 | 0.00 | 0.00 | 100 | 1009.2 |
| 20260509032817 | 101 | 109 | 0.0 | 0.0 | 0.00 | 0.00 | 0.00 | 100 | 1009.3 |
| 20260509032530 | 101 | 109 | 0.0 | 0.0 | 0.00 | 0.00 | 0.00 | 100 | 1009.4 |
| 20260509031749 | 101 | 109 | 0.0 | 0.0 | 0.00 | 0.00 | 0.00 | 100 | 1009.4 |
| 20260509031241 | 100 | 109 | 0.0 | 0.0 | 0.00 | 0.00 | 0.00 | 100 | 1009.3 |
| 20260509030739 | 101 | 109 | 0.0 | 0.0 | 0.00 | 0.00 | 0.00 | 100 | 1009.3 |
| 20260509030201 | 101 | 109 | 0.0 | 0.0 | 0.00 | 0.00 | 0.00 | 100 | 1009.3 |
| 20260509025655 | 101 | 109 | 0.0 | 0.0 | 0.00 | 0.00 | 0.00 | 100 | 1009.3 |
| 20260509025145 | 101 | 109 | 0.0 | 0.0 | 0.00 | 0.00 | 0.00 | 100 | 1009.2 |
| 20260509024645 | 101 | 109 | 0.0 | 0.0 | 0.00 | 0.00 | 0.00 | 100 | 1009.1 |
| 20260509024140 | 101 | 109 | 0.0 | 0.0 | 0.00 | 0.00 | 0.00 | 100 | 1009.0 |
| 20260509023910 | 101 | 109 | 0.0 | 0.0 | 0.00 | 0.00 | 0.00 | 100 | 1009.0 |
| 20260509023136 | 101 | 109 | 0.0 | 0.0 | 0.00 | 0.00 | 0.00 | 100 | 1008.9 |
| 20260509022904 | 101 | 109 | 0.0 | 0.0 | 0.00 | 0.00 | 0.00 | 100 | 1008.8 |
| 20260509022130 | 101 | 109 | 0.0 | 4.0 | 0.00 | 0.00 | 0.00 | 100 | 1008.8 |
| 20260509021625 | 102 | 109 | 0.0 | 6.0 | 0.00 | 0.00 | 0.00 | 100 | 1008.8 |
| 20260509021120 | 102 | 111 | 3.0 | 6.0 | 0.00 | 0.00 | 0.00 | 100 | 1008.6 |
| 20260509020614 | 102 | 142 | 0.0 | 0.0 | 0.00 | 0.00 | 0.00 | 100 | 1008.6 |
| 20260509020340 | 102 | 142 | 0.0 | 1.0 | 0.00 | 0.00 | 0.00 | 100 | 1008.5 |
| 20260509015603 | 102 | 142 | 0.0 | 5.0 | 0.00 | 0.00 | 0.00 | 100 | 1008.5 |
| 20260509015059 | 103 | 142 | 1.0 | 5.0 | 0.00 | 0.00 | 0.00 | 100 | 1008.4 |
| 20260509014555 | 102 | 129 | 1.0 | 5.0 | 0.00 | 0.00 | 0.00 | 100 | 1008.4 |
| 20260509014054 | 103 | 102 | 3.0 | 5.0 | 0.00 | 0.00 | 0.00 | 100 | 1008.3 |
| 20260509013552 | 102 | 130 | 0.0 | 6.0 | 0.00 | 0.00 | 0.00 | 100 | 1008.2 |
| 20260509013053 | 103 | 146 | 0.0 | 6.0 | 0.00 | 0.00 | 0.00 | 100 | 1008.2 |
| 20260509012552 | 103 | 156 | 3.0 | 7.0 | 0.00 | 0.00 | 0.00 | 100 | 1008.3 |
| 20260509012052 | 103 | 136 | 3.0 | 7.0 | 0.00 | 0.00 | 0.00 | 100 | 1008.3 |
| 20260509011552 | 103 | 156 | 0.0 | 0.0 | 0.00 | 0.00 | 0.00 | 100 | 1008.3 |
| 20260509011048 | 103 | 156 | 0.0 | 0.0 | 0.00 | 0.00 | 0.00 | 100 | 1008.3 |
| 20260509010537 | 103 | 156 | 0.0 | 2.0 | 0.00 | 0.00 | 0.00 | 100 | 1008.3 |
| 20260509010248 | 103 | 156 | 0.0 | 6.0 | 0.00 | 0.00 | 0.00 | 100 | 1008.3 |
| 20260509005511 | 103 | 136 | 0.0 | 6.0 | 0.00 | 0.00 | 0.00 | 100 | 1008.2 |
| 20260509005013 | 103 | 147 | 3.0 | 5.0 | 0.00 | 0.00 | 0.00 | 100 | 1008.2 |
| 20260509004502 | 103 | 122 | 0.0 | 4.0 | 0.00 | 0.00 | 0.00 | 100 | 1008.2 |
| 20260509003947 | 103 | 130 | 0.0 | 0.0 | 0.00 | 0.00 | 0.00 | 100 | 1008.2 |
| 20260509003442 | 104 | 130 | 0.0 | 0.0 | 0.00 | 0.00 | 0.00 | 100 | 1008.2 |
| 20260509002942 | 103 | 130 | 0.0 | 0.0 | 0.00 | 0.00 | 0.00 | 100 | 1008.2 |
| 20260509002431 | 103 | 130 | 0.0 | 0.0 | 0.00 | 0.00 | 0.00 | 100 | 1008.2 |
| 20260509002157 | 103 | 130 | 0.0 | 0.0 | 0.00 | 0.00 | 0.00 | 100 | 1008.3 |
| 20260509001422 | 104 | 130 | 0.0 | 0.0 | 0.00 | 0.00 | 0.00 | 100 | 1008.2 |
| 20260509000916 | 103 | 130 | 0.0 | 0.0 | 0.00 | 0.00 | 0.00 | 100 | 1008.2 |
| 20260509000410 | 103 | 130 | 0.0 | 5.0 | 0.00 | 0.00 | 0.00 | 100 | 1008.1 |
| 20260508235902 | 103 | 130 | 0.0 | 7.0 | 0.00 | 0.00 | 0.00 | 100 | 1008.2 |
| 20260508235351 | 103 | 119 | 0.0 | 4.0 | 0.00 | 0.00 | 0.00 | 100 | 1008.3 |
| 20260508235347 | 103 | 151 | 5.0 | 7.0 | 0.00 | 0.00 | 0.00 | 100 | 1008.2 |
| 20260508234341 | 103 | 119 | 0.0 | 4.0 | 0.00 | 0.00 | 0.00 | 100 | 1008.3 |
| 20260508233835 | 103 | 109 | 0.0 | 0.0 | 0.00 | 0.00 | 0.00 | 100 | 1008.2 |
| 20260508233329 | 103 | 109 | 0.0 | 0.0 | 0.00 | 0.00 | 0.00 | 100 | 1008.2 |
| 20260508232823 | 103 | 109 | 0.0 | 0.0 | 0.00 | 0.00 | 0.00 | 100 | 1008.2 |
| 20260508232319 | 103 | 109 | 0.0 | 0.0 | 0.00 | 0.00 | 0.00 | 100 | 1008.2 |
| 20260508231803 | 103 | 109 | 0.0 | 0.0 | 0.00 | 0.00 | 0.00 | 100 | 1008.2 |
| 20260508231302 | 103 | 109 | 0.0 | 0.0 | 0.00 | 0.00 | 0.00 | 100 | 1008.2 |
| 20260508230753 | 103 | 109 | 0.0 | 5.0 | 0.00 | 0.00 | 0.00 | 100 | 1008.2 |
| 20260508230249 | 103 | 109 | 0.0 | 6.0 | 0.00 | 0.00 | 0.00 | 100 | 1008.1 |
| 20260508225743 | 103 | 126 | 2.0 | 6.0 | 0.00 | 0.00 | 0.00 | 100 | 1008.1 |
| 20260508225245 | 103 | 102 | 0.0 | 6.0 | 0.00 | 0.00 | 0.00 | 100 | 1008.2 |
| 20260508224743 | 103 | 144 | 3.0 | 6.0 | 0.00 | 0.00 | 0.00 | 100 | 1008.2 |
| 20260508224243 | 103 | 144 | 0.0 | 6.0 | 0.00 | 0.00 | 0.00 | 100 | 1008.3 |
| 20260508223955 | 103 | 136 | 1.0 | 6.0 | 0.00 | 0.00 | 0.00 | 100 | 1008.2 |
| 20260508223224 | 104 | 122 | 3.0 | 9.0 | 0.00 | 0.00 | 0.00 | 100 | 1008.2 |
| 20260508222724 | 104 | 113 | 0.0 | 9.0 | 0.00 | 0.00 | 0.00 | 100 | 1008.3 |
| 20260508222456 | 104 | 87 | 0.0 | 6.0 | 0.00 | 0.00 | 0.00 | 100 | 1008.3 |
| 20260508221718 | 104 | 109 | 2.0 | 6.0 | 0.00 | 0.00 | 0.00 | 100 | 1008.2 |
| 20260508221218 | 104 | 158 | 3.0 | 5.0 | 0.00 | 0.00 | 0.00 | 100 | 1008.2 |
| 20260508220712 | 104 | 126 | 1.0 | 6.0 | 0.00 | 0.00 | 0.00 | 100 | 1008.2 |
| 20260508220213 | 104 | 126 | 0.0 | 8.0 | 0.00 | 0.00 | 0.00 | 100 | 1008.1 |
| 20260508215706 | 105 | 137 | 1.0 | 8.0 | 0.00 | 0.00 | 0.00 | 100 | 1008.2 |
| 20260508215206 | 105 | 122 | 2.0 | 6.0 | 0.00 | 0.00 | 0.00 | 100 | 1008.2 |
| 20260508214934 | 104 | 130 | 0.0 | 6.0 | 0.00 | 0.00 | 0.00 | 100 | 1008.3 |
| 20260508214203 | 104 | 130 | 3.0 | 6.0 | 0.00 | 0.00 | 0.00 | 100 | 1008.5 |
| 20260508213700 | 104 | 125 | 0.0 | 6.0 | 0.00 | 0.00 | 0.00 | 100 | 1008.5 |
| 20260508213159 | 104 | 132 | 3.0 | 6.0 | 0.00 | 0.00 | 0.00 | 100 | 1008.5 |
| 20260508212700 | 104 | 102 | 3.0 | 7.0 | 0.00 | 0.00 | 0.00 | 100 | 1008.5 |
| 20260508212159 | 104 | 105 | 1.0 | 7.0 | 0.00 | 0.00 | 0.00 | 100 | 1008.5 |
| 20260508211658 | 104 | 75 | 0.0 | 6.0 | 0.00 | 0.00 | 0.00 | 100 | 1008.6 |
| 20260508211154 | 104 | 120 | 0.0 | 5.0 | 0.00 | 0.00 | 0.00 | 100 | 1008.8 |
| 20260508210650 | 104 | 80 | 0.0 | 4.0 | 0.00 | 0.00 | 0.00 | 100 | 1008.9 |
| 20260508210143 | 104 | 80 | 0.0 | 6.0 | 0.00 | 0.00 | 0.00 | 100 | 1008.9 |
| 20260508205627 | 104 | 25 | 2.0 | 6.0 | 0.00 | 0.00 | 0.00 | 100 | 1008.9 |
| 20260508205123 | 103 | 156 | 1.0 | 6.0 | 0.00 | 0.00 | 0.00 | 100 | 1009.0 |
| 20260508204850 | 103 | 22 | 0.0 | 6.0 | 0.00 | 0.00 | 0.00 | 100 | 1009.1 |
| 20260508204113 | 103 | 130 | 0.0 | 8.0 | 0.00 | 0.00 | 0.00 | 100 | 1009.2 |
| 20260508203608 | 104 | 154 | 1.0 | 8.0 | 0.00 | 0.00 | 0.00 | 100 | 1009.2 |
| 20260508203108 | 104 | 11 | 2.0 | 8.0 | 0.00 | 0.00 | 0.00 | 100 | 1009.2 |
| 20260508202609 | 104 | 147 | 4.0 | 9.0 | 0.00 | 0.00 | 0.00 | 100 | 1009.2 |
| 20260508202103 | 105 | 129 | 0.0 | 9.0 | 0.00 | 0.00 | 0.00 | 100 | 1009.2 |
| 20260508201603 | 104 | 153 | 3.0 | 7.0 | 0.00 | 0.00 | 0.00 | 100 | 1009.2 |
| 20260508201104 | 105 | 16 | 1.0 | 9.0 | 0.00 | 0.00 | 0.00 | 100 | 1009.3 |
| 20260508201100 | 105 | 46 | 0.0 | 9.0 | 0.00 | 0.00 | 0.00 | 100 | 1009.3 |
| 20260508200329 | 105 | 68 | 2.0 | 6.0 | 0.00 | 0.00 | 0.00 | 100 | 1009.4 |
| 20260508195557 | 104 | 163 | 0.0 | 6.0 | 0.00 | 0.00 | 0.00 | 100 | 1009.5 |
| 20260508195048 | 103 | 118 | 3.0 | 5.0 | 0.00 | 0.00 | 0.00 | 100 | 1009.6 |
| 20260508194546 | 103 | 122 | 0.0 | 5.0 | 0.00 | 0.00 | 0.00 | 100 | 1009.7 |
| 20260508194046 | 103 | 82 | 0.0 | 5.0 | 0.00 | 0.00 | 0.00 | 100 | 1009.9 |
| 20260508193543 | 103 | 22 | 1.0 | 6.0 | 0.00 | 0.00 | 0.00 | 100 | 1009.9 |
| 20260508193042 | 103 | 73 | 0.0 | 6.0 | 0.00 | 0.00 | 0.00 | 100 | 1010.0 |
| 20260508192540 | 103 | 19 | 0.0 | 6.0 | 0.00 | 0.00 | 0.00 | 100 | 1010.0 |
| 20260508192040 | 103 | 126 | 1.0 | 5.0 | 0.00 | 0.00 | 0.00 | 100 | 1010.2 |
| 20260508191535 | 103 | 82 | 2.0 | 7.0 | 0.00 | 0.00 | 0.00 | 100 | 1010.2 |
| 20260508191030 | 104 | 109 | 3.0 | 7.0 | 0.00 | 0.00 | 0.00 | 100 | 1010.2 |
| 20260508190751 | 104 | 333 | 0.0 | 5.0 | 0.00 | 0.00 | 0.00 | 100 | 1010.3 |
| 20260508190021 | 105 | 12 | 2.0 | 6.0 | 0.00 | 0.00 | 0.00 | 100 | 1010.2 |
| 20260508185514 | 104 | 30 | 0.0 | 6.0 | 0.00 | 0.00 | 0.00 | 100 | 1010.3 |
| 20260508185013 | 104 | 136 | 0.0 | 5.0 | 0.00 | 0.00 | 0.00 | 100 | 1010.4 |
| 20260508184505 | 103 | 126 | 3.0 | 6.0 | 0.00 | 0.00 | 0.00 | 100 | 1010.4 |
| 20260508184236 | 103 | 54 | 0.0 | 6.0 | 0.00 | 0.00 | 0.00 | 100 | 1010.5 |
| 20260508183503 | 104 | 132 | 1.0 | 6.0 | 0.00 | 0.00 | 0.00 | 100 | 1010.6 |
| 20260508183001 | 103 | 165 | 4.0 | 6.0 | 0.00 | 0.00 | 0.00 | 100 | 1010.7 |